Weather History for KMBL - November, 2012

Change the Weather History Date:

Monday, November 26, 2012

  Actual Average Record
Temperature  
Mean Temperature 29 °F -  
Max Temperature 30 °F 40 °F 57 °F (1960)
Min Temperature 26 °F 29 °F 2 °F (1977)
Degree Days  
Heating Degree Days 36    
Moisture  
Dew Point 16 °F    
Average Humidity 59    
Maximum Humidity 69    
Minimum Humidity 47    
Precipitation  
Precipitation 0.00 in - - ()
Sea Level Pressure  
Sea Level Pressure 30.18 in    
Wind  
Wind Speed 11 mph (WNW)    
Max Wind Speed 15 mph    
Max Gust Speed 22 mph    
Visibility 10 miles    
Events      
Averages and records for this station are not official NWS values.
T = Trace of Precipitation, MM = Missing Value Source: NWS Daily Summary

Daily Weather History Graph

Daily Weather History Graph

Search for Another Location

Airport or City:

Trip Planner

Search our weather history database for the weather conditions in past years. The results will help you decide how hot, cold, wet, or windy it might be!

Date:

Astronomy

Nov. 26, 2012 Rise Set
Actual Time 7:55 AM EST 5:09 PM EST
Civil Twilight 7:23 AM EST 5:41 PM EST
Nautical Twilight 6:47 AM EST 6:17 PM EST
Astronomical Twilight 6:12 AM EST 6:52 PM EST
Moon 4:03 PM EST (11/26) 6:02 AM EST (11/26)
Length of Visible Light 10h 18m
Length of Day
9h 14m
Waxing Gibbous, 97% of the Moon is Illuminated
Nov 26
Waxing Gibbous
Nov 28
Full
Dec 6
Last Quarter
Dec 13
New
Dec 20
First Quarter

Hourly Weather History & Observations

Time (EST) Temp. Windchill Dew Point Humidity Pressure Visibility Wind Dir Wind Speed Gust Speed Precip Events Conditions
12:15 AM 32.0 °F 23.0 °F 17.6 °F 55% 30.00 in 10.0 mi NW 11.5 mph 17.3 mph N/A   Overcast
12:35 AM 32.0 °F 21.6 °F 17.6 °F 55% 30.01 in 10.0 mi NW 15.0 mph 19.6 mph N/A   Overcast
12:55 AM 30.2 °F 20.2 °F 15.8 °F 55% 30.02 in 10.0 mi WNW 12.7 mph - N/A   Overcast
1:15 AM 30.2 °F 20.8 °F 17.6 °F 60% 30.03 in 10.0 mi WNW 11.5 mph - N/A   Overcast
1:35 AM 30.2 °F 19.8 °F 15.8 °F 55% 30.03 in 10.0 mi WNW 13.8 mph - N/A   Overcast
1:55 AM 30.2 °F 19.8 °F 15.8 °F 55% 30.03 in 10.0 mi WNW 13.8 mph 17.3 mph N/A   Overcast
2:15 AM 30.2 °F 20.2 °F 17.6 °F 60% 30.04 in 10.0 mi WNW 12.7 mph - N/A   Overcast
2:35 AM 30.2 °F 19.3 °F 15.8 °F 55% 30.04 in 10.0 mi WNW 15.0 mph 21.9 mph N/A   Overcast
2:55 AM 30.2 °F 21.3 °F 17.6 °F 60% 30.05 in 10.0 mi NW 10.4 mph 16.1 mph N/A   Overcast
3:15 AM 30.2 °F 21.3 °F 15.8 °F 55% 30.05 in 10.0 mi NW 10.4 mph - N/A   Overcast
3:35 AM 30.2 °F 20.8 °F 15.8 °F 55% 30.07 in 10.0 mi NW 11.5 mph 17.3 mph N/A   Overcast
3:55 AM 30.2 °F 21.3 °F 14.0 °F 51% 30.06 in 10.0 mi NW 10.4 mph 17.3 mph N/A   Overcast
4:15 AM 30.2 °F 20.8 °F 15.8 °F 55% 30.07 in 10.0 mi WNW 11.5 mph - N/A   Overcast
4:35 AM 30.2 °F 21.3 °F 14.0 °F 51% 30.08 in 10.0 mi NNW 10.4 mph 17.3 mph N/A   Overcast
4:55 AM 30.2 °F 21.9 °F 15.8 °F 55% 30.08 in 10.0 mi WNW 9.2 mph - N/A   Overcast
5:15 AM 30.2 °F 21.3 °F 14.0 °F 51% 30.09 in 10.0 mi NW 10.4 mph - N/A   Overcast
5:35 AM 30.2 °F 21.3 °F 12.2 °F 47% 30.10 in 10.0 mi NW 10.4 mph 17.3 mph N/A   Overcast
5:55 AM 30.2 °F 22.6 °F 14.0 °F 51% 30.10 in 10.0 mi NW 8.1 mph - N/A   Overcast
6:15 AM 30.2 °F 19.8 °F 12.2 °F 47% 30.10 in 10.0 mi NW 13.8 mph - N/A   Overcast
6:35 AM 30.2 °F 21.9 °F 14.0 °F 51% 30.10 in 10.0 mi NW 9.2 mph - N/A   Overcast
6:55 AM 30.2 °F 21.9 °F 14.0 °F 51% 30.11 in 10.0 mi NW 9.2 mph - N/A   Overcast
7:15 AM 30.2 °F 21.3 °F 15.8 °F 55% 30.11 in 10.0 mi WNW 10.4 mph - N/A   Overcast
7:35 AM 30.2 °F 22.6 °F 17.6 °F 60% 30.12 in 10.0 mi WNW 8.1 mph - N/A   Overcast
7:55 AM 30.2 °F 20.8 °F 17.6 °F 60% 30.13 in 10.0 mi WNW 11.5 mph - N/A   Overcast
8:15 AM 30.2 °F 20.8 °F 17.6 °F 60% 30.14 in 10.0 mi WNW 11.5 mph - N/A   Overcast
8:35 AM 30.2 °F 20.8 °F 17.6 °F 60% 30.14 in 10.0 mi WNW 11.5 mph 16.1 mph N/A   Overcast
8:55 AM 30.2 °F 20.8 °F 17.6 °F 60% 30.15 in 10.0 mi WNW 11.5 mph - N/A   Overcast
9:15 AM 30.2 °F 20.8 °F 15.8 °F 55% 30.16 in 10.0 mi WNW 11.5 mph - N/A   Overcast
9:35 AM 30.2 °F 20.2 °F 15.8 °F 55% 30.16 in 10.0 mi West 12.7 mph - N/A   Overcast
9:55 AM 30.2 °F 19.8 °F 14.0 °F 51% 30.17 in 10.0 mi WNW 13.8 mph - N/A   Overcast
10:15 AM 30.2 °F 20.8 °F 15.8 °F 55% 30.18 in 10.0 mi West 11.5 mph - N/A   Overcast
10:35 AM 30.2 °F 20.8 °F 15.8 °F 55% 30.19 in 10.0 mi West 11.5 mph - N/A   Overcast
10:55 AM 30.2 °F 19.8 °F 17.6 °F 60% 30.20 in 10.0 mi West 13.8 mph - N/A   Overcast
11:35 AM 30.2 °F 21.3 °F 17.6 °F 60% 30.20 in 10.0 mi WNW 10.4 mph - N/A   Overcast
11:55 AM 30.2 °F 20.8 °F 17.6 °F 60% 30.20 in 10.0 mi West 11.5 mph - N/A   Overcast
12:15 PM 30.2 °F 20.8 °F 17.6 °F 60% 30.20 in 10.0 mi WNW 11.5 mph - N/A   Overcast
12:35 PM 30.2 °F 21.3 °F 17.6 °F 60% 30.20 in 10.0 mi WNW 10.4 mph - N/A   Overcast
12:55 PM 30.2 °F 22.6 °F 17.6 °F 60% 30.20 in 10.0 mi NW 8.1 mph - N/A   Overcast
1:15 PM 30.2 °F 21.3 °F 17.6 °F 60% 30.20 in 10.0 mi WNW 10.4 mph - N/A   Overcast
1:35 PM 30.2 °F 20.2 °F 17.6 °F 60% 30.20 in 10.0 mi NW 12.7 mph - N/A   Overcast
1:55 PM 30.2 °F 20.2 °F 15.8 °F 55% 30.21 in 10.0 mi WNW 12.7 mph - N/A   Overcast
2:15 PM 30.2 °F 21.3 °F 17.6 °F 60% 30.22 in 10.0 mi WNW 10.4 mph - N/A   Overcast
2:35 PM 30.2 °F 19.3 °F 17.6 °F 60% 30.22 in 10.0 mi WNW 15.0 mph - N/A   Overcast
2:55 PM 28.4 °F 18.0 °F 15.8 °F 59% 30.22 in 10.0 mi WNW 12.7 mph - N/A   Overcast
3:15 PM 28.4 °F 19.1 °F 17.6 °F 64% 30.21 in 10.0 mi WNW 10.4 mph - N/A   Overcast
3:35 PM 28.4 °F 18.0 °F 17.6 °F 64% 30.21 in 10.0 mi WNW 12.7 mph - N/A   Overcast
3:55 PM 28.4 °F 17.5 °F 15.8 °F 59% 30.22 in 10.0 mi WNW 13.8 mph - N/A   Overcast
4:15 PM 28.4 °F 18.5 °F 15.8 °F 59% 30.22 in 10.0 mi WNW 11.5 mph - N/A   Overcast
4:35 PM 28.4 °F 18.0 °F 15.8 °F 59% 30.23 in 10.0 mi NW 12.7 mph - N/A   Overcast
4:55 PM 28.4 °F 19.7 °F 15.8 °F 59% 30.24 in 10.0 mi WNW 9.2 mph - N/A   Overcast
5:15 PM 28.4 °F 20.4 °F 15.8 °F 59% 30.24 in 10.0 mi NW 8.1 mph - N/A   Overcast
5:35 PM 28.4 °F 18.0 °F 17.6 °F 64% 30.25 in 10.0 mi NW 12.7 mph 16.1 mph N/A   Overcast
5:55 PM 28.4 °F 18.0 °F 15.8 °F 59% 30.25 in 10.0 mi NW 12.7 mph 16.1 mph N/A   Overcast
6:15 PM 26.6 °F 15.7 °F 15.8 °F 64% 30.26 in 10.0 mi WNW 12.7 mph - N/A   Overcast
6:35 PM 26.6 °F 16.8 °F 14.0 °F 59% 30.27 in 10.0 mi WNW 10.4 mph - N/A   Overcast
6:55 PM 26.6 °F 18.2 °F 14.0 °F 59% 30.28 in 10.0 mi NW 8.1 mph - N/A   Overcast
7:15 PM 26.6 °F 19.1 °F 12.2 °F 55% 30.28 in 10.0 mi North 6.9 mph - N/A   Overcast
7:35 PM 26.6 °F 19.1 °F 14.0 °F 59% 30.28 in 10.0 mi NW 6.9 mph - N/A   Overcast
7:55 PM 26.6 °F 20.0 °F 15.8 °F 64% 30.29 in 10.0 mi NW 5.8 mph - N/A   Overcast
8:15 PM 26.6 °F 20.0 °F 15.8 °F 64% 30.29 in 10.0 mi WNW 5.8 mph - N/A   Overcast
8:35 PM 26.6 °F - 15.8 °F 64% 30.29 in 10.0 mi Calm Calm - N/A   Overcast
8:55 PM 26.6 °F - 15.8 °F 64% 30.30 in 10.0 mi Calm Calm - N/A   Overcast
9:15 PM 26.6 °F - 15.8 °F 64% 30.31 in 10.0 mi Calm Calm - N/A   Overcast
9:35 PM 26.6 °F - 15.8 °F 64% 30.31 in 10.0 mi Calm Calm - N/A   Overcast
9:55 PM 26.6 °F 21.2 °F 15.8 °F 64% 30.31 in 10.0 mi SE 4.6 mph - N/A   Overcast
10:15 PM 26.6 °F 21.2 °F 15.8 °F 64% 30.31 in 10.0 mi SSE 4.6 mph - N/A   Overcast
10:35 PM 26.6 °F 22.6 °F 15.8 °F 64% 30.30 in 10.0 mi ESE 3.5 mph - N/A   Overcast
10:55 PM 26.6 °F 22.6 °F 17.6 °F 69% 30.30 in 10.0 mi North 3.5 mph - N/A   Overcast
11:15 PM 26.6 °F - 17.6 °F 69% 30.30 in 10.0 mi Calm Calm - N/A   Overcast
11:35 PM 26.6 °F 21.2 °F 17.6 °F 69% 30.30 in 10.0 mi ENE 4.6 mph - N/A   Overcast
11:55 PM 26.6 °F - 17.6 °F 69% 30.30 in 10.0 mi Calm Calm - N/A   Overcast